www.pogodaiklimat.ru

Погода и климат >> Архив погоды >> Чехия >> АЭС Дукованы


ПОГОДА на АЭС Дукованы

  • Прогноз погоды на АЭС Дукованы
  • Монитор погоды на АЭС Дукованы

АРХИВ ПОГОДЫ на АЭС Дукованы

Время (UTC), дата Ветер
(напр.,м/с)
 
Видим.   Явления Облачность Т
(С)
Тd
(С)
f
(%)
Тe
(С)
Тes
(С)
Комфортность P
(гПа)
Po
(гПа)
Тmin
(С)
Tmax
(С)
R
(мм)
R24
(мм)
S
(см)
19 10.06 В 9 25 км 4/0
[Ci fib]
+24.3 +16.6 62 +28 +28 душно 1011.0 965.8
20 10.06 В 6 25 км 3/0
[Ci fib]
+22.6 +16.9 70 +27 +27 душно 1011.6 966.1
21 10.06 В 6-11
{11}
21 км н/о +22.2 +17.1 73 +27 +27 душно 1011.1 965.6
22 10.06 В 6 23 км н/о +22.0 +16.8 72 +26 +26 душно 1011.5 966.0
23 10.06 В 6 23 км н/о +21.8 +16.7 73 +26 +26 душно 1011.5 965.9
00 11.06 В 5
{11}
21 км н/о +21.1 +16.8 76 +25 +25 комфорт 1011.1 965.4
01 11.06 В 6 15 км н/о +19.8 +16.8 83 +22 +22 комфорт 1011.0 965.1
02 11.06 В 7 14 км н/о +20.3 +17.1 82 +23 +23 комфорт 1010.9 965.1
03 11.06 В 7 17 км н/о +20.0 +16.9 82 +22 +22 комфорт 1010.8 965.0
04 11.06 В 7 17 км н/о +20.3 +16.9 81 +23 +23 комфорт 1011.0 965.2
05 11.06 В 6 18 км 1/0
[Ac trans]
+21.2 +17.6 80 +25 +26 комфорт 1010.9 965.3
06 11.06 В 8
{12}
20 км ясно +22.6 +17.7 74 +28 +29 душно 1010.9 965.5 +19.4
07 11.06 В 9 23 км ясно +24.1 +18.3 70 +29 +29 душно 1010.9 965.7
08 11.06 В 8 28 км 1/1 900 м
[Cu hum]
+25.8 +19.0 66 +31 +33 очень
душно
1011.1 966.2
09 11.06 ЮВ 8
{12}
25 км 3/3 960 м
[Cu hum]
+26.7 +18.0 59 +31 +33 душно 1010.9 966.1
10 11.06 ЮВ 8
{12}
25 км 4/1 1140 м
[Cu hum Ci fib]
+27.3 +17.8 56 +32 +34 очень
душно
1010.7 966.0
11 11.06 ЮВ 10
{12}
25 км 4/1 1320 м
[Cu hum Ci fib]
+27.5 +17.7 55 +32 +32 очень
душно
1010.9 966.2
12 11.06 ЮВ 9
{12}
25 км 4/1 1350 м
[Cu hum Ci fib]
+28.8 +18.3 53 +34 +35 очень
душно
1010.2 965.7
13 11.06 ЮВ 10
{12}
25 км 4/3 1300 м
[Cu hum Ci fib]
+28.4 +18.2 54 +33 +34 очень
душно
1009.8 965.3
14 11.06 ЮВ 9
{12}
25 км 4/4 1380 м
[Cu hum]
+28.9 +17.1 49 +33 +33 очень
душно
1009.5 965.1
15 11.06 ЮВ 9
{12}
25 км 4/3 1350 м
[Cu hum Ci fib]
+28.5 +16.8 49 +32 +33 душно 1009.4 964.9
16 11.06 ЮВ 9
{13}
25 км 3/3 1300 м
[Cu hum]
+28.0 +16.9 51 +32 +32 душно 1009.2 964.6
17 11.06 ЮВ 9
{12}
25 км 6/1 1230 м
[Cu hum Ci sp]
+26.9 +17.4 56 +31 +31 душно 1009.7 965.0
18 11.06 В 9
{13}
22 км 6/0
[Ac trans Cs]
+26.0 +17.4 59 +30 +30 душно 1010.4 965.5 +29.6
19 11.06 В 9
{11}
25 км 8/0
[Ci sp]
+25.1 +17.1 61 +29 +29 душно 1010.4 965.4
20 11.06 В 7
{11}
25 км 9/0
[Ci sp]
+23.7 +16.0 62 +27 +27 жарко 1011.0 965.7
21 11.06 В 6-11
{11}
28 км н/о +23.3 +15.7 62 +28 +28 душно 1011.0 965.7
22 11.06 В 6 26 км н/о +22.0 +15.9 68 +26 +26 душно 1011.3 965.7
23 11.06 В 8 27 км н/о +21.9 +16.1 70 +26 +26 душно 1010.1 964.6
00 12.06 В 7-12
{12}
26 км н/о +20.9 +16.0 74 +24 +24 комфорт 1010.0 964.3
01 12.06 В 6 25 км н/о +20.3 +16.2 77 +23 +23 комфорт 1010.0 964.3
02 12.06 В 5 22 км н/о +19.5 +16.3 82 +21 +21 комфорт 1010.0 964.1
03 12.06 В 4 19 км н/о +18.1 +16.0 88 +18 +18 1010.4 964.3
04 12.06 В 5 20 км н/о +19.4 +16.1 81 +21 +21 комфорт 1010.6 964.7
05 12.06 В 5 22 км 3/0
[Ci fib]
+20.7 +16.9 79 +24 +25 комфорт 1010.6 964.9
06 12.06 В 7 22 км 3/0
[Ci fib]
+21.9 +16.8 73 +26 +27 душно 1010.4 964.9 +17.7
07 12.06 ЮВ 8 22 км 4/0
[Ci fib]
+23.5 +16.5 65 +27 +28 душно 1010.1 964.8
08 12.06 ЮВ 10
{12}
28 км 4/0
[Ci fib]
+25.0 +15.1 54 +28 +28 жарко 1010.0 964.9
09 12.06 ЮВ 10
{12}
30 км 4/0
[Ci fib]
+26.9 +15.6 50 +30 +31 душно 1009.6 964.8
10 12.06 Ю 13
{16}
30 км 4/1 1500 м
[Cu hum Ci fib]
+27.6 +14.9 46 +30 +30 жарко 1009.6 964.9
11 12.06 Ю 12
{16}
30 км 3/1 1500 м
[Cu hum Ci fib]
+28.2 +14.8 44 +31 +31 душно 1009.4 964.8
12 12.06 Ю 11
{16}
25 км 3/1 1500 м
[Cu hum Ci fib]
+28.7 +15.2 44 +31 +32 жарко 1009.0 964.5
13 12.06 ЮВ 12
{15}
25 км 1/1 1500 м
[Cu hum]
+29.1 +15.3 43 +32 +32 душно 1008.7 964.3
14 12.06 Ю 10
{13}
25 км 1/1 1500 м
[Cu hum]
+29.0 +14.8 42 +31 +32 жарко 1008.3 963.9
15 12.06 Ю 9-14
{15}
25 км 1/1 1500 м
[Cu hum Ci fib]
+28.9 +15.8 45 +32 +33 душно 1008.3 963.9
16 12.06 ЮВ 10
{13}
25 км 1/0
[Ci sp]
+28.3 +15.9 47 +31 +32 душно 1007.8 963.3
17 12.06 ЮВ 9
{13}
25 км 6/0
[Ac trans Ci fib]
+27.3 +16.3 51 +31 +31 душно 1008.2 963.6
18 12.06 ЮВ 9
{15}
25 км 6/0
[Ac trans Ci fib]
+26.2 +16.7 56 +30 +30 душно 1008.5 963.7 +29.7
19 12.06 В 8 25 км 6/1 1500 м
[Cu med, cong Ci fib]
+24.8 +17.3 63 +29 +29 душно 1009.1 964.1
20 12.06 В 6 25 км 6/1 1500 м
[Cu med, cong Ci fib]
+24.0 +17.3 66 +28 +28 душно 1009.9 964.7
21 12.06 ЮВ 5 25 км н/о +23.3 +17.4 69 +29 +29 душно 1010.3 965.0
22 12.06 В 5 25 км н/о +22.6 +17.6 73 +28 +28 душно 1010.8 965.4
23 12.06 25 км н/о +21.0 +17.4 80 1011.1 965.4
00 13.06 В 3 21 км н/о +20.3 +17.5 84 +24 +24 комфорт 1011.1 965.3
01 13.06 21 км н/о +19.6 +17.1 85 1011.3 965.4
02 13.06 В 5 21 км н/о +20.7 +17.2 80 +24 +24 комфорт 1010.9 965.2
03 13.06 ЮВ 5 17 км н/о +19.3 +16.7 85 +21 +21 комфорт 1011.2 965.3
04 13.06 Ю 2 12 км н/о +18.1 +16.5 90 +19 +19 1012.1 965.9
05 13.06 15 км 6/0
[Ac trans Ci sp]
+20.0 +17.2 84 1012.1 966.2
06 13.06 нст 2 17 км 6/0
[Ac trans]
+20.4 +17.0 81 +24 +27 комфорт 1012.5 966.7 +17.8
07 13.06 20 км 6/3 800 м
[Cu med, cong Ac trans]
+20.9 +17.3 80 1012.9 967.1
08 13.06 17 км 8/8 660 м
[Sc]
+22.9 +18.0 74 1012.8 967.4
09 13.06 С 3 17 км 6/6 750 м
[Sc]
+23.1 +17.8 72 +29 +34 очень
душно
1013.0 967.6
10 13.06 СЗ 2 17 км 8/8 660 м
[Cu med, cong]
+23.5 +17.9 71 +28 +31 душно 1012.9 967.5
11 13.06 З 3 17 км 8/8 870 м
[Cu med, cong]
+25.8 +18.0 62 +30 +33 душно 1012.3 967.3
12 13.06 нст 3 17 км 8/8 900 м
[Cu med, cong]
+26.0 +18.4 63 +31 +34 очень
душно
1011.9 967.0
13 13.06 25 км 8/8 1200 м
[Cu med, cong]
+27.5 +18.2 57 1011.6 966.9
14 13.06 ЮВ 5 20 км 8/8 1200 м
[Cu med, cong]
+26.5 +17.8 59 +31 +32 душно 1011.5 966.6
15 13.06 Ю 5 20 км 8/8 1410 м
[Cu med, cong]
+26.9 +18.2 59 +32 +32 очень
душно
1011.2 966.4
16 13.06 Ю 3 25 км 6/6 1410 м
[Cu med, cong]
+27.8 +17.9 55 +32 +34 душно 1010.5 965.9
17 13.06 З 4 20 км 3/3 1300 м
[Cu med, cong]
+27.4 +18.7 59 +32 +33 очень
душно
1010.0 965.4
18 13.06 С 3 20 км 3/3 1000 м
[Cu med, cong]
+24.6 +19.4 73 +30 +30 очень
душно
1011.2 966.1 +28.4
19 13.06 С 4 18 км 5/5 1000 м
[Cb calv]
+23.7 +18.6 73 +28 +28 душно 1011.6 966.3
20 13.06 С 6-11
{11}
20 км 8/8 1000 м
[Cb calv]
+21.9 +17.9 78 +27 +27 душно 1013.1 967.5
21 13.06 С 6
{11}
14 км н/о +21.4 +17.9 80 +26 +26 душно 1013.2 967.5
22 13.06 СВ 4 20 км н/о +20.7 +16.9 79 +24 +24 комфорт 1013.6 967.8
23 13.06 З 3 19 км н/о +19.8 +17.1 84 +23 +23 комфорт 1014.6 968.6
00 14.06 С 7
{11}
15 км н/о +19.9 +17.4 86 +22 +22 комфорт 1014.6 968.6
01 14.06 С 7 24 км н/о +18.4 +15.1 81 +18 +18 1015.9 969.6
02 14.06 С 5 23 км н/о +17.5 +14.9 85 +17 +17 1016.2 969.7
03 14.06 С 5 23 км н/о +17.9 +15.1 84 +17 +17 1016.7 970.3
04 14.06 С 5 20 км н/о +18.4 +15.5 83 +19 +19 1017.1 970.7
05 14.06 С 5 25 км 5/0
[Ac trans]
+19.8 +16.3 80 +22 +23 комфорт 1017.5 971.3
06 14.06 В 3 30 км 6/0 2000 м
[Ac As]
+23.2 +16.7 67 +28 +30 душно 1017.9 972.2 +17.2
07 14.06 С 3 15 км ясно +23.6 +16.6 65 +27 +34 жарко 1017.8 972.2
08 14.06 25 км ясно +24.7 +16.9 62 1017.9 972.5
09 14.06 СВ 4 25 км ясно +26.3 +17.7 59 +31 +41 душно 1017.8 972.6
10 14.06 В 4 25 км 3/3 1300 м
[Cu med, cong]
+27.5 +18.8 59 +33 +41 очень
душно
1017.6 972.6
11 14.06 25 км 6/6 1200 м
[Cu med, cong]
+27.1 +17.9 57 1017.3 972.3
12 14.06 В 5 25 км 6/6 1500 м
[Cu med, cong]
+28.6 +16.8 49 +32 +36 душно 1016.8 972.0
13 14.06 ЮВ 6 25 км 6/6 1500 м
[Cu med, cong]
+29.6 +13.8 38 +31 +34 жарко 1016.2 971.5
14 14.06 В 3 25 км 6/6 1500 м
[Cu med, cong]
+29.2 +15.0 42 +32 +35 душно 1016.1 971.4
15 14.06 В 5 25 км 6/6 1500 м
[Cu med, cong]
+29.0 +15.9 45 +32 +34 душно 1015.6 970.9
16 14.06 В 5 25 км 3/3 1410 м
[Cu med, cong]
+28.5 +16.8 49 +32 +34 душно 1015.4 970.6
17 14.06 В 5 25 км ясно +27.8 +17.6 54 +32 +33 душно 1015.1 970.3
18 14.06 В 5 20 км ясно +26.4 +19.3 65 +32 +32 очень
душно
1015.4 970.4 +30.1
19 14.06 В 4 20 км ясно +24.4 +18.8 71 +29 +29 душно 1015.4 970.1
20 14.06 В 5 15 км ясно +23.9 +18.3 71 +28 +28 душно 1015.7 970.3
21 14.06 В 5 14 км н/о +22.6 +18.5 78 +28 +28 душно 1015.7 970.1
22 14.06 В 3 10 км н/о +21.6 +18.9 85 +26 +26 душно 1015.5 969.8
23 14.06 В 3 8000 м дымка н/о +21.1 +19.0 88 +25 +25 комфорт 1015.1 969.3
00 15.06 В 4 6000 м дымка н/о +20.0 +18.7 92 +23 +23 комфорт 1014.8 968.8
01 15.06 В 5 9000 м дымка н/о +20.2 +17.7 86 +23 +23 комфорт 1014.2 968.3
02 15.06 В 5 17 км н/о +20.7 +16.4 76 +24 +24 комфорт 1013.5 967.7
03 15.06 В 5 14 км {дымка} н/о +19.0 +16.3 84 +20 +20 1013.3 967.2
04 15.06 В 5 18 км н/о +20.2 +16.3 78 +23 +23 комфорт 1012.9 967.0
05 15.06 В 4 15 км 6/0
[Ci sp]
+21.8 +17.0 74 +26 +27 душно 1012.6 967.0
06 15.06 В 5 20 км 8/0
[Ci sp]
+22.4 +17.3 73 +27 +29 душно 1012.4 966.9 +18.9
07 15.06 В 7 20 км 8/0
[Ci sp]
+24.8 +18.3 67 +29 +31 душно 1012.2 967.1
08 15.06 ЮВ 7 25 км 8/0
[Ac As]
+26.3 +17.7 59 +31 +32 душно 1011.8 966.9
09 15.06 ЮВ 7 25 км 8/0
[Ac As Ci sp]
+27.9 +17.7 54 +32 +35 душно 1011.7 967.0
10 15.06 ЮВ 7 25 км 8/0
[Ci fib]
+29.2 +18.3 52 +34 +38 очень
душно
1011.0 966.6
11 15.06 Ю 5 25 км 4/0
[Ac lent]
+30.4 +17.5 46 +34 +41 очень
душно
1010.7 966.4
12 15.06 Ю 7 25 км 8/4 1410 м
[Cu med, cong Ac cuf]
+29.5 +17.7 49 +34 +35 очень
душно
1011.0 966.6
13 15.06 Ю 5 25 км 9/5 1300 м
[Cu med, cong Ac cuf]
+28.4 +18.2 54 +33 +35 очень
душно
1010.8 966.3
14 15.06 ЮВ 6 25 км 9/0
[Ac As]
+30.0 +17.1 46 +34 +36 очень
душно
1010.4 966.1
15 15.06 ЮВ 5 25 км 8/4 1410 м
[Cu med, cong Ac cuf]
+29.1 +17.9 51 +34 +35 очень
душно
1009.9 965.5
16 15.06 Ю 6 25 км 8/0
[Ac lent Ci fib]
+30.0 +17.1 46 +34 +35 очень
душно
1009.3 965.0
17 15.06 ЮВ 6 25 км 8/0
[Ci sp]
+28.5 +17.1 50 +32 +33 душно 1009.4 964.9
18 15.06 Ю 4 25 км 8/0
[Ac trans]
+27.5 +17.9 56 +32 +32 очень
душно
1009.6 965.0 +32.0
19 15.06 С 9
{11}
25 км 8/0
[Ac cast]
+23.8 +14.2 55 +26 +26 жарко 1011.2 965.9
20 15.06 22 км ясно +20.7 +14.8 69 1011.9 966.1
21 15.06 З 4-10
{11}
25 км н/о +20.5 +14.8 70 +23 +23 комфорт 1012.3 966.5
22 15.06 С 7 24 км н/о +20.7 +14.1 66 +23 +23 комфорт 1013.1 967.2
23 15.06 СЗ 6 24 км н/о +19.9 +14.5 71 +22 +22 комфорт 1013.9 967.9
00 16.06 С 8
{11}
25 км н/о +19.9 +14.3 70 +21 +21 комфорт 1013.0 967.0
01 16.06 С 5 26 км н/о +19.1 +14.4 74 +20 +20 1013.5 967.4
02 16.06 С 5 25 км н/о +18.5 +14.2 76 +19 +19 1013.4 967.2
03 16.06 С 3 23 км н/о +16.7 +14.4 86 +16 +16 1014.0 967.5
04 16.06 СЗ 3 22 км н/о +17.5 +15.0 85 +18 +18 1014.3 967.9
05 16.06 З 7 25 км 9/9 1000 м
[Sc]
+18.6 +15.3 81 +19 +19 1015.2 968.9
06 16.06 СЗ 7 25 км 9/9 1300 м
[Sc]
+19.3 +15.6 79 +20 +21 1015.7 969.5 +16.4
07 16.06 С 7 25 км 9/9 1380 м
[Sc]
+20.3 +16.3 78 +23 +23 комфорт 1016.0 970.0
08 16.06 С 6 20 км 9/9 1410 м
[Sc]
+21.2 +16.4 74 +25 +25 комфорт 1016.2 970.3
09 16.06 С 4 25 км 9/9 1500 м
[Sc]
+22.0 +16.3 70 +26 +27 душно 1016.4 970.6
10 16.06 С 5 25 км 9/9 1500 м
[Sc]
+21.5 +16.7 74 +25 +26 комфорт 1017.1 971.2
11 16.06 С 7 25 км 9/9 700 м
[Cu Sc]
+22.2 +16.7 71 +27 +27 душно 1017.1 971.3
12 16.06 С 8 25 км 8/8 900 м
[Cu Sc]
+22.6 +16.4 68 +27 +28 душно 1017.3 971.6
13 16.06 СЗ 7 25 км 6/6 800 м
[Cu Sc]
+22.8 +16.4 67 +27 +29 душно 1017.3 971.6
14 16.06 СЗ 9 25 км 6/0
[Ci sp]
+22.0 +15.4 66 +26 +27 душно 1017.5 971.7
15 16.06 СЗ 8
{11}
25 км 8/4 900 м
[Cu med, cong Ci fib]
+22.2 +15.1 64 +26 +26 душно 1017.3 971.5
16 16.06 С 7 30 км 8/4 900 м
[Cu med, cong Ci fib]
+21.6 +14.7 65 +25 +25 комфорт 1017.9 972.0
17 16.06 С 7 30 км 6/6 960 м
[Cu med, cong]
+20.1 +12.8 63 +22 +22 комфорт 1019.0 972.8
18 16.06 С 6
{11}
25 км 8/3 800 м
[Cu med, cong Ci sp]
+18.4 +12.2 67 +18 +18 1019.8 973.2 +24.6
19 16.06 С 6 35 км 8/3 660 м
[Cu med, cong Ci sp]
+17.6 +12.3 71 +17 +17 1019.3 972.6
20 16.06 С 5 30 км 6/0
[Ci sp]
+17.0 +12.5 75 +16 +16 1019.9 973.1
21 16.06 С 4 30 км н/о +16.1 +11.9 76 +15 +15 1021.3 974.3
22 16.06 С 5 30 км н/о +15.2 +11.9 81 +14 +14 1021.0 973.9
23 16.06 С 5 30 км н/о +15.5 +12.0 80 +14 +14 1021.0 973.9
00 17.06 С 5 29 км н/о +15.2 +11.9 81 +14 +14 1020.6 973.5
01 17.06 З 4 30 км н/о +15.2 +12.1 82 +14 +14 1020.9 973.8
02 17.06 С 3 27 км н/о +13.6 +11.7 88 +12 +12 1021.4 974.0
03 17.06 С 5 26 км н/о +14.6 +12.1 85 +13 +13 1021.2 974.0
04 17.06 С 5 27 км н/о +15.1 +12.4 84 +14 +14 1021.3 974.2
05 17.06 С 4 25 км 5/5 1440 м
[Sc]
+16.8 +12.5 76 +16 +17 1021.4 974.5
06 17.06 С 5 35 км 3/0
[Ac lent]
+18.9 +12.6 67 +20 +22 1021.0 974.5 +13.2
07 17.06 СВ 6 35 км 3/0
[Ci sp]
+20.5 +11.7 57 +22 +25 комфорт 1020.9 974.6
08 17.06 СВ 6 30 км 4/4 1200 м
[Cu hum]
+22.2 +12.7 55 +25 +28 комфорт 1020.6 974.6
09 17.06 СВ 5 25 км 6/6 1140 м
[Cu med, cong]
+22.5 +12.7 54 +25 +28 комфорт 1020.3 974.4
10 17.06 С 3 30 км 8/8 1200 м
[Cu med, cong]
+21.8 +12.6 56 +24 +27 комфорт 1020.5 974.4
11 17.06 С 4 30 км 8/8 1500 м
[Cu med, cong]
+23.0 +12.6 52 +26 +28 жарко 1020.2 974.3
12 17.06 СВ 5 30 км 8/6 1500 м
[Cu med, cong Ac cuf]
+24.6 +12.5 47 +26 +29 жарко 1019.5 973.9
13 17.06 СВ 4 30 км 8/6 1410 м
[Cu med, cong Ci fib]
+25.0 +12.9 47 +27 +31 жарко 1019.1 973.6
14 17.06 В 5 24 км 8/5 1470 м
[Cu med, cong Ci fib]
+24.1 +13.0 50 +26 +29 жарко 1018.9 973.3
15 17.06 В 5 30 км 6/4 1440 м
[Cu med, cong Ci fib]
+23.7 +12.7 50 +26 +28 жарко 1018.4 972.7
17 17.06 В 5 30 км 10/1 1500 м
[Cu hum Cs]
+22.6 +12.0 51 +25 +26 комфорт 1018.0 972.2
18 17.06 В 4 30 км 9/0
[Cs]
+20.8 +12.2 58 +23 +23 комфорт 1018.4 972.3 +25.6

 

Местоположение метеостанции АЭС Дукованы (Чехия): широта 49.10 долгота 16.13 высота над уровнем моря 405 м.

В архиве по умолчанию представлена погода на АЭС Дукованы за последнюю неделю. Архивные данные за месяц целиком и за предыдущие месяцы, начиная с января 2011 года, Вы можете получить, выбрав интересующий диапазон дат из раскрывающегося списка и нажав кнопку "Ввод!".


*Определитесь, кто Вы:
робот инопланетянин человек

Внимание! Время в таблицах - всемирное. Для получения местного времени необходимо прибавить поправку, которая равна 1 ч.

Смотрите также архив погоды в соседних городах и на ближайших метеорологических станциях:

Погода в Замке Namest nad Oslav (Чехия) (8 км)
Погода в Кучарловице (Чехия) (25 км)
Погода в Реце (Австрия) (39 км)
Погода в Брно (Чехия) (42 км)
Погода в Церкви Мыслова (Чехия) (49 км)
Погода в Пршибиславе (Чехия) (59 км)
Погода в Пойсдорфе (Австрия) (60 км)
Погода в Лейзер Берге (Австрия) (62 км)
Погода в Гарс-ам-Кампе (Австрия) (67 км)
Погода в Мистельбахе (Австрия) (68 км)

Пояснения к столбцам:

Ветер - указаны скорость ветра в м/с - средняя за 10 мин, порывы в срок и между сроками (в фигурных скобках) и направление, откуда дует ветер: С - северный, СВ - северо-восточный, В - восточный, ЮВ - юго-восточный, Ю - южный, ЮЗ - юго-западный, З - западный, СЗ - северо-западный.
Видимость - горизонтальная дальность видимости в метрах или километрах. При видимости от 1 до 10 км при отсутствии осадков обычно наблюдается дымка, при ухудшении видимости до 1 км и менее - туман. В сухую погоду видимость может ухудшаться дымом, пылью или мглою.
Явления - указаны атмосферные явления, наблюдавшиеся в срок или в последний час перед сроком; фигурными скобками обозначены явления, наблюдавшиеся между сроками (за 1-3 часа до срока); квадратными скобками обозначены град или гололедные отложения с указанием их диаметра в мм.
Облачность - указаны через наклонную черту общая и нижняя облачность в баллах и высота нижней границы облаков в метрах; квадратными скобками обозначены формы облаков: Ci - перистые, Cs - перисто-слоистые, Cc - перисто-кучевые, Ac - высококучевые, As - высокослоистые, Sc - слоисто-кучевые, Ns - слоисто-дождевые, Cu - кучевые, Cb - кучево-дождевые. Подробнее классификацию облаков см. в Атласе облаков (PDF).
T - Температура воздуха - температура, измеренная на высоте 2 м над землей.
Td - Температура точки росы - температура, при понижении до которой содержащийся в воздухе водяной пар достигнет насыщения.
f - Относительная влажность воздуха - влажноcть воздуха, измеренная на высоте 2 м над землей.
Te - Эффективная температура - температура, которую ощущает одетый по сезону человек в тени. Характеристика душности погоды. При расчете учитывается влияние влажности воздуха и скорости ветра на теплоощущения человека.
Tes - Эффективная температура на солнце - температура, которую ощущает человек, с поправкой на солнечный нагрев. Характеристика знойности погоды. Зависит от высоты солнца над горизонтом, облачности и скорости ветра. Ночью, в пасмурную погоду, а также при ветре 12 м/с и более поправка равна нулю.
P - Атмосферное давление - приведенное к уровню моря атмосферное давление.
Po - Атмосферное давление - измеренное на уровне метеостанции атмосферное давление.
Tmin - Минимальная температура - минимум температуры воздуха на высоте 2 м над землей.
Tmax - Максимальная температура - максимум температуры воздуха на высоте 2 м над землей.
R - Количество осадков - Количество выпавших осадков за период времени, мм. При наведении курсора мыши на число - период времени, за который выпало указанное количество осадков.
R24 - Количество осадков - Количество выпавших осадков за 24 часа, мм.
S - Снежный покров - Высота снежного покрова, см. При наведении курсора мыши на число - состояние снежного покрова и степень покрытия местности в баллах.